Regional Weather Roundup
Issued by NWS

Home | Current Version | Previous Version | Graphics & Text | Print | Product List | Glossary On
Versions: 1 2 3 4 5 6 7 8 9 10 11 12 13 14 15 16 17 18 19 20 21 22 23 24 25 26 27 28 29 30 31 32 33 34 35 36 37 38 39 40 41 42 43 44 45 46 47 48 49 50
000
ASUS43 KFSD 311310
RWRSD

WEATHER ROUNDUP FOR SOUTH DAKOTA
NATIONAL WEATHER SERVICE SIOUX FALLS SD
700 AM CST SAT JAN 31 2015

NOTE: "FAIR" INDICATES FEW OR NO CLOUDS BELOW 12,000 FEET WITH NO
SIGNIFICANT WEATHER AND/OR OBSTRUCTIONS TO VISIBILITY.


SDZ001>005-009-010-012>017-311400-
NORTHWEST AND NORTH CENTRAL SOUTH DAKOTA

CITY           SKY/WX    TMP DP  RH WIND       PRES   REMARKS
BUFFALO          N/A     24  22  91 E15       29.95F WCI  11
FAITH            N/A     24  21  88 NE16      30.07S WCI  11
MOBRIDGE       CLOUDY    25  22  88 E13       30.14R WCI  14
$$

SDZ012>016-024>037-041>051-057-063-072>074-311400-
SOUTHWEST AND SOUTH CENTRAL SOUTH DAKOTA

CITY           SKY/WX    TMP DP  RH WIND       PRES   REMARKS
RAPID CTY ARPT CLOUDY    29  22  75 CALM      30.02R
PIERRE         CLOUDY    24  23  96 NE17      30.11R FOG     WCI  11
CUSTER         CLOUDY    26  18  71 NE6       29.94S WCI  19
ELLSWORTH AFB  CLOUDY    28  22  80 SE3       30.01S
PHILIP         CLOUDY    27  25  92 E13       30.06S WCI  16
PINE RIDGE     CLOUDY    26  22  84 CALM      29.99F
WINNER         FAIR      27  24  89 NE9       30.06R WCI  18
$$

SDZ004>011-016>023-039-040-311400-
NORTHEAST SOUTH DAKOTA

CITY           SKY/WX    TMP DP  RH WIND       PRES   REMARKS
ABERDEEN       CLOUDY    23  19  85 NE17      30.20R WCI   9
WATERTOWN      CLOUDY    21  18  88 NE14      30.13R WCI   8
SISSETON         N/A     18  16  92 NE22      30.22R WCI   1
$$

SDZ017-020-022-023-036>040-048>070-311400-
SOUTHEAST SOUTH DAKOTA

CITY           SKY/WX    TMP DP  RH WIND       PRES   REMARKS
SIOUX FALLS    MOCLDY    26  23  88 NE12      30.11S WCI  16
HURON          CLOUDY    25  24  96 NE14      30.14R FOG     WCI  13
CHAMBERLAIN    CLOUDY    25  25  99 NE12      30.10R FOG     WCI  14
MITCHELL       MOCLDY    26  24  92 NE13      30.12R WCI  15
YANKTON        CLOUDY    27  25  93 NE3       30.08S
$$

ABBREVIATIONS USED IN REMARKS
   TC - TEMPERATURE IN CELSIUS
  WCI - WIND CHILL INDEX
   HX - HEAT INDEX
  VSB - VISIBILITY




USA.gov is the U.S. government's official web portal to all federal, state and local government web resources and services.